CPA161 VHHH-YSSY

Flight info

Callsign CPA161
Flight time 8h 29m
Altitude 35000
Route DALOL V652 UNTUL/N0493F340 V652 SABNO/N0493F350 A583 ZAM A461 AMN/N0487F370 A461 BUTPA DCT VEGPU DCT RUKSI DCT YUSEF DCT NOLES DCT 26S138E/N0478F390 DCT OOM DCT APOMA Y52 VELGI Y105 TARAL Y59 TESAT
Aircraft B77W/H-SDE1E2E3FGHIJ2J3J4J5M1RWXY/LB1D1

Departure

Time 2026-05-07 13:29
Airport Hong Kong International Airport (VHHH)

Arrival

Time 2026-05-07 21:58
Airport Sydney Kingsford Smith International Airport (YSSY)
Time Latitude Longitude Altitude Speed Heading
2026-05-07 12:47 22.31195 113.92590 35 ft 0 kts 114°
2026-05-07 13:11 22.31198 113.92583 35 ft 2 kts 116°
2026-05-07 13:11 22.31206 113.92570 35 ft 2 kts 136°
2026-05-07 13:11 22.31218 113.92560 35 ft 2 kts 153°
2026-05-07 13:12 22.31232 113.92554 35 ft 2 kts 169°
2026-05-07 13:12 22.31247 113.92553 35 ft 2 kts 185°
2026-05-07 13:12 22.31257 113.92554 35 ft 0 kts 196°
2026-05-07 13:12 22.31261 113.92556 35 ft 0 kts 197°
2026-05-07 13:16 22.31260 113.92556 35 ft 0 kts 197°
2026-05-07 13:17 22.31241 113.92548 35 ft 5 kts 205°
2026-05-07 13:17 22.31213 113.92528 35 ft 4 kts 217°
2026-05-07 13:17 22.31177 113.92499 35 ft 8 kts 218°
2026-05-07 13:17 22.31115 113.92449 35 ft 13 kts 219°
2026-05-07 13:18 22.31050 113.92402 35 ft 12 kts 209°
2026-05-07 13:18 22.30965 113.92357 35 ft 13 kts 205°
2026-05-07 13:18 22.30885 113.92313 35 ft 12 kts 208°
2026-05-07 13:18 22.30827 113.92287 35 ft 4 kts 193°
2026-05-07 13:19 22.30823 113.92287 35 ft 0 kts 187°
2026-05-07 13:19 22.30807 113.92288 35 ft 4 kts 168°
2026-05-07 13:19 22.30755 113.92302 35 ft 10 kts 162°
2026-05-07 13:19 22.30676 113.92322 35 ft 12 kts 181°
2026-05-07 13:20 22.30614 113.92268 35 ft 12 kts 243°
2026-05-07 13:20 22.30581 113.92183 35 ft 12 kts 249°
2026-05-07 13:20 22.30551 113.92095 35 ft 12 kts 251°
2026-05-07 13:20 22.30523 113.92001 35 ft 13 kts 253°
2026-05-07 13:21 22.30492 113.91900 35 ft 14 kts 251°
2026-05-07 13:21 22.30456 113.91789 35 ft 16 kts 252°
2026-05-07 13:21 22.30415 113.91667 35 ft 17 kts 250°
2026-05-07 13:21 22.30374 113.91537 35 ft 19 kts 252°
2026-05-07 13:22 22.30342 113.91435 35 ft 10 kts 251°
2026-05-07 13:22 22.30310 113.91338 35 ft 16 kts 251°
2026-05-07 13:22 22.30266 113.91202 35 ft 22 kts 251°
2026-05-07 13:22 22.30209 113.91025 35 ft 27 kts 251°
2026-05-07 13:23 22.30145 113.90821 35 ft 30 kts 251°
2026-05-07 13:23 22.30070 113.90601 35 ft 31 kts 250°
2026-05-07 13:23 22.29999 113.90378 35 ft 29 kts 251°
2026-05-07 13:23 22.29935 113.90180 35 ft 27 kts 250°
2026-05-07 13:24 22.29878 113.90002 35 ft 23 kts 249°
2026-05-07 13:24 22.29843 113.89897 35 ft 7 kts 251°
2026-05-07 13:24 22.29837 113.89880 35 ft 0 kts 251°
2026-05-07 13:25 22.29833 113.89865 35 ft 5 kts 251°
2026-05-07 13:25 22.29815 113.89809 35 ft 8 kts 249°
2026-05-07 13:25 22.29783 113.89757 35 ft 7 kts 221°
2026-05-07 13:25 22.29765 113.89745 35 ft 0 kts 202°
2026-05-07 13:26 22.29764 113.89745 35 ft 1 kts 200°
2026-05-07 13:26 22.29720 113.89742 35 ft 11 kts 172°
2026-05-07 13:27 22.29652 113.89761 35 ft 8 kts 158°
2026-05-07 13:27 22.29635 113.89803 35 ft 2 kts 74°
2026-05-07 13:27 22.29636 113.89807 35 ft 0 kts 70°
2026-05-07 13:28 22.29670 113.89908 35 ft 46 kts 69°
2026-05-07 13:28 22.29865 113.90509 35 ft 121 kts 71°
2026-05-07 13:28 22.30216 113.91592 52 ft 183 kts 73°
2026-05-07 13:29 22.30591 113.92919 776 ft 189 kts 75°
2026-05-07 13:29 22.31023 113.94241 1599 ft 190 kts 71°
2026-05-07 13:29 22.31494 113.95633 1952 ft 206 kts 73°
2026-05-07 13:29 22.31978 113.97131 2310 ft 222 kts 72°
2026-05-07 13:30 22.32509 113.98782 2716 ft 240 kts 72°
2026-05-07 13:30 22.33070 114.00526 3161 ft 257 kts 72°
2026-05-07 13:30 22.33649 114.02380 3769 ft 266 kts 75°
2026-05-07 13:30 22.33886 114.04351 4472 ft 270 kts 96°
2026-05-07 13:31 22.33341 114.06290 4931 ft 274 kts 122°
2026-05-07 13:31 22.32059 114.07802 4994 ft 273 kts 147°
2026-05-07 13:31 22.30352 114.08652 5014 ft 272 kts 166°
2026-05-07 13:31 22.28477 114.08881 5006 ft 271 kts 182°
2026-05-07 13:32 22.26560 114.08777 5012 ft 272 kts 182°
2026-05-07 13:32 22.24659 114.08704 5065 ft 282 kts 181°
2026-05-07 13:32 22.22710 114.08670 5954 ft 279 kts 181°
2026-05-07 13:32 22.20771 114.08649 6825 ft 277 kts 181°
2026-05-07 13:33 22.18825 114.08641 7439 ft 284 kts 178°
2026-05-07 13:33 22.16919 114.09147 8047 ft 290 kts 153°
2026-05-07 13:33 22.15338 114.10518 8661 ft 296 kts 127°
2026-05-07 13:33 22.14260 114.12398 9323 ft 299 kts 118°
2026-05-07 13:34 22.13316 114.14392 10012 ft 302 kts 117°
2026-05-07 13:34 22.11339 114.18597 10832 ft 331 kts 117°
2026-05-07 13:34 22.10260 114.20869 11191 ft 347 kts 117°
2026-05-07 13:35 22.09124 114.23252 11565 ft 363 kts 118°
2026-05-07 13:35 22.07740 114.25542 11933 ft 377 kts 129°
2026-05-07 13:35 22.05860 114.27627 12311 ft 391 kts 141°
2026-05-07 13:35 22.03683 114.29414 12837 ft 400 kts 145°
2026-05-07 13:36 22.01428 114.31187 13551 ft 404 kts 145°
2026-05-07 13:36 21.99165 114.32964 14249 ft 409 kts 145°
2026-05-07 13:36 21.96833 114.34797 14954 ft 414 kts 145°
2026-05-07 13:36 21.94503 114.36629 15651 ft 419 kts 145°
2026-05-07 13:37 21.92140 114.38488 16345 ft 423 kts 145°
2026-05-07 13:37 21.89755 114.40364 17011 ft 428 kts 144°
2026-05-07 13:37 21.87502 114.42429 17642 ft 434 kts 135°
2026-05-07 13:37 21.85549 114.44962 18259 ft 440 kts 125°
2026-05-07 13:38 21.84029 114.47812 18861 ft 445 kts 115°
2026-05-07 13:38 21.82968 114.50927 19498 ft 449 kts 106°
2026-05-07 13:38 21.82144 114.54170 20141 ft 452 kts 104°
2026-05-07 13:38 21.81320 114.57469 20747 ft 456 kts 104°
2026-05-07 13:39 21.80491 114.60756 21296 ft 461 kts 104°
2026-05-07 13:39 21.79646 114.64078 21868 ft 465 kts 104°
2026-05-07 13:39 21.78778 114.67473 22421 ft 470 kts 105°
2026-05-07 13:39 21.77906 114.70864 22949 ft 474 kts 105°
2026-05-07 13:40 21.77033 114.74249 23470 ft 479 kts 105°
2026-05-07 13:40 21.76137 114.77713 24027 ft 482 kts 105°
2026-05-07 13:40 21.75215 114.81195 24568 ft 485 kts 108°
2026-05-07 13:40 21.73934 114.84544 25070 ft 489 kts 117°
2026-05-07 13:41 21.72174 114.87675 25549 ft 493 kts 126°
2026-05-07 13:41 21.70129 114.90626 26059 ft 497 kts 128°
2026-05-07 13:41 21.68031 114.93580 26555 ft 501 kts 128°
2026-05-07 13:41 21.65893 114.96584 27068 ft 504 kts 128°
2026-05-07 13:42 21.63762 114.99583 27576 ft 508 kts 127°
2026-05-07 13:42 21.61623 115.02591 28067 ft 511 kts 127°
2026-05-07 13:42 21.59468 115.05624 28550 ft 514 kts 127°
2026-05-07 13:42 21.57294 115.08682 29029 ft 518 kts 127°
2026-05-07 13:43 21.55099 115.11736 29501 ft 521 kts 130°
2026-05-07 13:43 21.52571 115.14563 30114 ft 520 kts 139°
2026-05-07 13:43 21.49759 115.16924 30824 ft 516 kts 145°
2026-05-07 13:43 21.46804 115.19122 31545 ft 513 kts 146°
2026-05-07 13:44 21.43879 115.21270 32149 ft 512 kts 146°
2026-05-07 13:44 21.40939 115.23425 32670 ft 512 kts 146°
2026-05-07 13:44 21.37997 115.25581 32927 ft 517 kts 146°
2026-05-07 13:45 21.32051 115.29934 32930 ft 513 kts 146°
2026-05-07 13:45 21.26187 115.34222 32934 ft 514 kts 146°
2026-05-07 13:46 21.20266 115.38547 32931 ft 512 kts 146°
2026-05-07 13:46 21.14357 115.42859 32934 ft 514 kts 146°
2026-05-07 13:47 21.08470 115.47150 32932 ft 513 kts 146°
2026-05-07 13:47 21.02559 115.51456 32935 ft 514 kts 146°
2026-05-07 13:48 20.96659 115.55749 32934 ft 513 kts 146°
2026-05-07 13:48 20.90744 115.60049 32936 ft 513 kts 146°
2026-05-07 13:49 20.84819 115.64351 32927 ft 512 kts 146°
2026-05-07 13:49 20.78947 115.68611 32923 ft 512 kts 146°
2026-05-07 13:50 20.73044 115.72889 32923 ft 514 kts 146°
2026-05-07 13:50 20.67127 115.77174 32919 ft 514 kts 146°
2026-05-07 13:51 20.61200 115.81463 32916 ft 514 kts 146°
2026-05-07 13:51 20.55281 115.85741 32909 ft 513 kts 146°
2026-05-07 13:52 20.49366 115.90012 32908 ft 513 kts 146°
2026-05-07 13:52 20.43468 115.94267 32908 ft 512 kts 146°
2026-05-07 13:53 20.37469 115.98466 32905 ft 513 kts 152°
2026-05-07 13:53 20.30836 116.01112 32906 ft 509 kts 170°
2026-05-07 13:54 20.23785 116.01565 32908 ft 506 kts 187°
2026-05-07 13:54 20.16809 116.00668 32912 ft 505 kts 189°
2026-05-07 13:55 20.09811 115.99706 32913 ft 505 kts 189°
2026-05-07 13:55 20.02847 115.98748 32912 ft 505 kts 189°
2026-05-07 13:56 19.95857 115.97787 32915 ft 505 kts 189°
2026-05-07 13:56 19.88885 115.96831 32907 ft 505 kts 189°
2026-05-07 13:57 19.81913 115.95875 32912 ft 506 kts 189°
2026-05-07 13:57 19.74940 115.94920 32903 ft 505 kts 189°
2026-05-07 13:58 19.67978 115.93967 32904 ft 505 kts 189°
2026-05-07 13:58 19.61016 115.93014 32900 ft 503 kts 189°
2026-05-07 13:59 19.54006 115.92056 32899 ft 505 kts 189°
2026-05-07 13:59 19.47040 115.91105 32898 ft 506 kts 189°
2026-05-07 14:00 19.40061 115.90153 32904 ft 505 kts 189°
2026-05-07 14:00 19.33090 115.89203 32903 ft 504 kts 189°
2026-05-07 14:01 19.26111 115.88252 32904 ft 504 kts 189°
2026-05-07 14:01 19.19156 115.87306 32899 ft 504 kts 189°
2026-05-07 14:02 19.12206 115.86361 32907 ft 504 kts 189°
2026-05-07 14:02 19.05214 115.85426 32899 ft 506 kts 186°
2026-05-07 14:03 18.98157 115.85816 32905 ft 509 kts 169°
2026-05-07 14:03 18.91532 115.88339 32912 ft 509 kts 153°
2026-05-07 14:04 18.85220 115.91775 32907 ft 508 kts 153°
2026-05-07 14:04 18.78940 115.95215 32907 ft 509 kts 152°
2026-05-07 14:05 18.72676 115.98642 32908 ft 509 kts 152°
2026-05-07 14:05 18.66361 116.02093 32908 ft 509 kts 152°
2026-05-07 14:06 18.60078 116.05524 32909 ft 509 kts 152°
2026-05-07 14:06 18.53799 116.08950 32909 ft 508 kts 152°
2026-05-07 14:07 18.47479 116.12395 32909 ft 509 kts 152°
2026-05-07 14:07 18.41209 116.15810 32909 ft 508 kts 152°
2026-05-07 14:08 18.34942 116.19222 32907 ft 508 kts 152°
2026-05-07 14:08 18.28630 116.22653 32909 ft 509 kts 152°
2026-05-07 14:09 18.22360 116.26060 32903 ft 508 kts 152°
2026-05-07 14:09 18.16068 116.29476 32897 ft 508 kts 152°
2026-05-07 14:10 18.09798 116.32877 32895 ft 508 kts 152°
2026-05-07 14:10 18.03544 116.36266 32892 ft 507 kts 152°
2026-05-07 14:11 17.97258 116.39671 32891 ft 507 kts 152°
2026-05-07 14:11 17.90972 116.43072 32892 ft 508 kts 152°
2026-05-07 14:12 17.84690 116.46468 32888 ft 507 kts 152°
2026-05-07 14:12 17.78419 116.49857 32885 ft 507 kts 152°
2026-05-07 14:13 17.72155 116.53238 32886 ft 506 kts 152°
2026-05-07 14:13 17.65857 116.56634 32890 ft 505 kts 152°
2026-05-07 14:14 17.59616 116.59998 32888 ft 506 kts 152°
2026-05-07 14:14 17.53366 116.63364 32889 ft 505 kts 152°
2026-05-07 14:15 17.47084 116.66744 32887 ft 505 kts 152°
2026-05-07 14:15 17.40869 116.70086 32887 ft 504 kts 152°
2026-05-07 14:16 17.34611 116.73448 32889 ft 505 kts 152°
2026-05-07 14:16 17.28366 116.76801 32890 ft 505 kts 152°
2026-05-07 14:17 17.22117 116.80153 32888 ft 505 kts 152°
2026-05-07 14:17 17.15866 116.83503 32891 ft 503 kts 152°
2026-05-07 14:18 17.09608 116.86855 32890 ft 503 kts 152°
2026-05-07 14:18 17.03400 116.90178 32889 ft 502 kts 152°
2026-05-07 14:19 16.97173 116.93508 32891 ft 503 kts 152°
2026-05-07 14:19 16.90919 116.96851 32892 ft 505 kts 152°
2026-05-07 14:20 16.84658 117.00195 32878 ft 504 kts 152°
2026-05-07 14:20 16.78435 117.03515 32869 ft 503 kts 152°
2026-05-07 14:21 16.72184 117.06847 32867 ft 502 kts 152°
2026-05-07 14:21 16.65969 117.10159 32867 ft 501 kts 152°
2026-05-07 14:22 16.59775 117.13457 32867 ft 501 kts 152°
2026-05-07 14:22 16.53554 117.16767 32867 ft 502 kts 152°
2026-05-07 14:23 16.47309 117.20087 32870 ft 502 kts 152°
2026-05-07 14:23 16.41090 117.23391 32873 ft 501 kts 152°
2026-05-07 14:24 16.34890 117.26682 32874 ft 501 kts 152°
2026-05-07 14:24 16.28660 117.29987 32875 ft 501 kts 152°
2026-05-07 14:25 16.22419 117.33295 32877 ft 500 kts 152°
2026-05-07 14:25 16.16214 117.36581 32881 ft 501 kts 152°
2026-05-07 14:26 16.10014 117.39864 32885 ft 500 kts 152°
2026-05-07 14:26 16.03794 117.43153 32889 ft 500 kts 152°
2026-05-07 14:27 15.97582 117.46437 32891 ft 500 kts 152°
2026-05-07 14:27 15.91400 117.49702 32891 ft 500 kts 152°
2026-05-07 14:28 15.85168 117.52992 32887 ft 500 kts 152°
2026-05-07 14:28 15.78957 117.56268 32886 ft 500 kts 152°
2026-05-07 14:29 15.72778 117.59525 32887 ft 500 kts 152°
2026-05-07 14:29 15.66555 117.62803 32887 ft 500 kts 152°
2026-05-07 14:30 15.60366 117.66061 32887 ft 500 kts 152°
2026-05-07 14:30 15.54144 117.69334 32884 ft 500 kts 152°
2026-05-07 14:31 15.47952 117.72589 32881 ft 500 kts 152°
2026-05-07 14:31 15.41745 117.75850 32880 ft 499 kts 152°
2026-05-07 14:32 15.35532 117.79112 32881 ft 499 kts 152°
2026-05-07 14:32 15.29354 117.82352 32879 ft 499 kts 152°
2026-05-07 14:33 15.23148 117.85606 32876 ft 499 kts 152°
2026-05-07 14:33 15.16948 117.88854 32872 ft 500 kts 152°
2026-05-07 14:34 15.10737 117.92106 32870 ft 499 kts 152°
2026-05-07 14:34 15.04555 117.95341 32869 ft 498 kts 152°
2026-05-07 14:35 14.98330 117.98595 32870 ft 499 kts 152°
2026-05-07 14:35 14.92162 118.01819 32864 ft 499 kts 152°
2026-05-07 14:36 14.85929 118.05074 32866 ft 499 kts 152°
2026-05-07 14:36 14.79729 118.08309 32864 ft 499 kts 152°
2026-05-07 14:37 14.73538 118.11538 32864 ft 498 kts 152°
2026-05-07 14:37 14.64257 118.16374 32865 ft 497 kts 152°
2026-05-07 14:38 14.58109 118.19576 32866 ft 497 kts 152°
2026-05-07 14:38 14.51896 118.22809 32868 ft 497 kts 152°
2026-05-07 14:39 14.45724 118.26019 32866 ft 498 kts 152°
2026-05-07 14:39 14.39560 118.29221 32866 ft 497 kts 152°
2026-05-07 14:40 14.33356 118.32444 32863 ft 496 kts 152°
2026-05-07 14:40 14.27214 118.35632 32858 ft 496 kts 152°
2026-05-07 14:41 14.21033 118.38838 32862 ft 496 kts 153°
2026-05-07 14:41 14.14857 118.42040 32859 ft 495 kts 153°
2026-05-07 14:42 14.08679 118.45241 32854 ft 496 kts 153°
2026-05-07 14:42 14.02535 118.48422 32851 ft 496 kts 153°
2026-05-07 14:43 13.96343 118.51626 32860 ft 495 kts 153°
2026-05-07 14:43 13.90191 118.54807 32868 ft 494 kts 153°
2026-05-07 14:44 13.84056 118.57978 32866 ft 495 kts 153°
2026-05-07 14:44 13.77908 118.61154 32868 ft 495 kts 153°
2026-05-07 14:45 13.71758 118.64329 32868 ft 495 kts 153°
2026-05-07 14:45 13.65584 118.67514 32867 ft 494 kts 153°
2026-05-07 14:46 13.59457 118.70673 32868 ft 494 kts 153°
2026-05-07 14:46 13.53317 118.73837 32868 ft 493 kts 153°
2026-05-07 14:47 13.47145 118.77016 32868 ft 496 kts 153°
2026-05-07 14:47 13.41007 118.80175 32868 ft 494 kts 153°
2026-05-07 14:48 13.34847 118.83343 32868 ft 493 kts 153°
2026-05-07 14:48 13.28691 118.86508 32867 ft 493 kts 153°
2026-05-07 14:49 13.22578 118.89649 32859 ft 492 kts 153°
2026-05-07 14:49 13.16433 118.92804 32851 ft 491 kts 153°
2026-05-07 14:50 13.10297 118.95953 32854 ft 493 kts 153°
2026-05-07 14:50 13.04162 118.99100 32850 ft 492 kts 153°
2026-05-07 14:51 12.98031 119.02244 32849 ft 494 kts 153°
2026-05-07 14:51 12.91867 119.05402 32845 ft 495 kts 154°
2026-05-07 14:52 12.85706 119.08556 32848 ft 493 kts 154°
2026-05-07 14:52 12.79603 119.11681 32845 ft 492 kts 154°
2026-05-07 14:53 12.73466 119.14820 32846 ft 493 kts 154°
2026-05-07 14:53 12.67296 119.17974 32845 ft 493 kts 154°
2026-05-07 14:54 12.61167 119.21106 32845 ft 492 kts 154°
2026-05-07 14:54 12.55050 119.24229 32844 ft 492 kts 154°
2026-05-07 14:55 12.48903 119.27367 32844 ft 491 kts 154°
2026-05-07 14:55 12.42820 119.30471 32843 ft 489 kts 154°
2026-05-07 14:56 12.36728 119.33577 32845 ft 488 kts 155°
2026-05-07 14:56 12.30642 119.36678 32844 ft 488 kts 155°
2026-05-07 14:57 12.24574 119.39769 32845 ft 488 kts 155°
2026-05-07 14:57 12.18470 119.42876 32849 ft 486 kts 155°
2026-05-07 14:58 12.12422 119.45954 32857 ft 485 kts 155°
2026-05-07 14:58 12.06377 119.49029 32868 ft 484 kts 155°
2026-05-07 14:59 12.00371 119.52081 32869 ft 484 kts 155°
2026-05-07 14:59 11.94309 119.55161 32866 ft 483 kts 155°
2026-05-07 15:00 11.88307 119.58209 32862 ft 483 kts 155°
2026-05-07 15:00 11.82272 119.61272 32857 ft 484 kts 155°
2026-05-07 15:01 11.76243 119.64330 32853 ft 484 kts 155°
2026-05-07 15:01 11.70210 119.67390 32844 ft 484 kts 155°
2026-05-07 15:02 11.64202 119.70444 32845 ft 483 kts 155°
2026-05-07 15:02 11.58181 119.73506 32846 ft 483 kts 155°
2026-05-07 15:03 11.52149 119.76572 32854 ft 483 kts 155°
2026-05-07 15:03 11.46150 119.79619 32857 ft 482 kts 155°
2026-05-07 15:04 11.40132 119.82674 32857 ft 483 kts 155°
2026-05-07 15:04 11.34096 119.85738 32852 ft 483 kts 155°
2026-05-07 15:05 11.28086 119.88786 32853 ft 482 kts 155°
2026-05-07 15:05 11.22089 119.91827 32852 ft 482 kts 155°
2026-05-07 15:06 11.16047 119.94888 32849 ft 483 kts 155°
2026-05-07 15:06 11.10062 119.97920 32847 ft 482 kts 155°
2026-05-07 15:07 11.04029 120.00974 32846 ft 483 kts 155°
2026-05-07 15:07 10.98002 120.04021 32846 ft 482 kts 155°
2026-05-07 15:08 10.91972 120.07065 32845 ft 482 kts 155°
2026-05-07 15:08 10.85959 120.10100 32843 ft 483 kts 155°
2026-05-07 15:09 10.79927 120.13142 32844 ft 483 kts 155°
2026-05-07 15:09 10.73930 120.16166 32841 ft 483 kts 155°
2026-05-07 15:10 10.67881 120.19215 32842 ft 483 kts 155°
2026-05-07 15:10 10.61848 120.22254 32845 ft 483 kts 155°
2026-05-07 15:11 10.55846 120.25276 32842 ft 483 kts 155°
2026-05-07 15:11 10.49779 120.28331 32834 ft 484 kts 155°
2026-05-07 15:12 10.43748 120.31364 32827 ft 484 kts 155°
2026-05-07 15:12 10.37728 120.34392 32825 ft 484 kts 155°
2026-05-07 15:13 10.31686 120.37430 32822 ft 484 kts 154°
2026-05-07 15:13 10.25616 120.40480 32821 ft 485 kts 154°
2026-05-07 15:14 10.19587 120.43504 32819 ft 484 kts 154°
2026-05-07 15:14 10.13515 120.46542 32819 ft 484 kts 154°
2026-05-07 15:15 10.07474 120.49563 32818 ft 485 kts 154°
2026-05-07 15:15 10.01412 120.52593 32817 ft 485 kts 154°
2026-05-07 15:16 9.95319 120.55639 32822 ft 487 kts 154°
2026-05-07 15:16 9.89248 120.58672 32828 ft 487 kts 154°
2026-05-07 15:17 9.83191 120.61696 32828 ft 486 kts 154°
2026-05-07 15:17 9.77109 120.64732 32828 ft 485 kts 154°
2026-05-07 15:18 9.71006 120.67777 32827 ft 486 kts 155°
2026-05-07 15:18 9.64962 120.70791 32828 ft 487 kts 155°
2026-05-07 15:19 9.58848 120.73838 32829 ft 487 kts 155°
2026-05-07 15:19 9.52755 120.76874 32830 ft 488 kts 155°
2026-05-07 15:20 9.46679 120.79900 32828 ft 489 kts 155°
2026-05-07 15:20 9.40552 120.82950 32829 ft 489 kts 155°
2026-05-07 15:21 9.34445 120.85989 32835 ft 489 kts 155°
2026-05-07 15:21 9.28331 120.89030 32843 ft 489 kts 155°
2026-05-07 15:22 9.22191 120.92082 32927 ft 497 kts 155°
2026-05-07 15:22 9.19090 120.93623 33502 ft 497 kts 155°
2026-05-07 15:22 9.16017 120.95152 34497 ft 488 kts 155°
2026-05-07 15:23 9.13004 120.96649 35504 ft 479 kts 155°
2026-05-07 15:23 9.10036 120.98124 36213 ft 474 kts 155°
2026-05-07 15:23 9.07044 120.99610 36596 ft 475 kts 155°
2026-05-07 15:23 9.04075 121.01083 36842 ft 478 kts 155°
2026-05-07 15:24 8.98093 121.04054 36832 ft 479 kts 154°
2026-05-07 15:24 8.92103 121.07026 36826 ft 478 kts 155°
2026-05-07 15:25 8.86133 121.09988 36826 ft 479 kts 155°
2026-05-07 15:25 8.80139 121.12960 36827 ft 479 kts 155°
2026-05-07 15:26 8.74120 121.15944 36828 ft 480 kts 155°
2026-05-07 15:26 8.68117 121.18919 36827 ft 480 kts 155°
2026-05-07 15:27 8.62130 121.21885 36826 ft 481 kts 154°
2026-05-07 15:27 8.56082 121.24880 36825 ft 482 kts 154°
2026-05-07 15:28 8.50028 121.27876 36829 ft 485 kts 154°
2026-05-07 15:28 8.44009 121.30856 36825 ft 482 kts 154°
2026-05-07 15:29 8.37961 121.33847 36829 ft 484 kts 155°
2026-05-07 15:29 8.31912 121.36839 36828 ft 484 kts 154°
2026-05-07 15:30 8.25830 121.39844 36827 ft 485 kts 154°
2026-05-07 15:30 8.19765 121.42842 36828 ft 485 kts 154°
2026-05-07 15:31 8.13719 121.45828 36832 ft 484 kts 153°
2026-05-07 15:31 8.07660 121.48820 36837 ft 484 kts 153°
2026-05-07 15:32 8.01628 121.51798 36829 ft 480 kts 153°
2026-05-07 15:32 7.95618 121.54765 36830 ft 480 kts 153°
2026-05-07 15:33 7.89585 121.57741 36830 ft 483 kts 154°
2026-05-07 15:33 7.83542 121.60721 36829 ft 485 kts 154°
2026-05-07 15:34 7.77452 121.63724 36831 ft 484 kts 154°
2026-05-07 15:34 7.71374 121.66719 36827 ft 484 kts 154°
2026-05-07 15:35 7.65346 121.69689 36834 ft 481 kts 154°
2026-05-07 15:35 7.59332 121.72652 36836 ft 482 kts 154°
2026-05-07 15:36 7.53289 121.75627 36834 ft 484 kts 154°
2026-05-07 15:36 7.47213 121.78618 36844 ft 485 kts 154°
2026-05-07 15:37 7.41172 121.81590 36850 ft 484 kts 154°
2026-05-07 15:37 7.35075 121.84590 36851 ft 485 kts 154°
2026-05-07 15:38 7.29047 121.87554 36868 ft 484 kts 154°
2026-05-07 15:38 7.22974 121.90544 36881 ft 485 kts 154°
2026-05-07 15:39 7.16900 121.93533 36880 ft 485 kts 154°
2026-05-07 15:39 7.10795 121.96537 36886 ft 486 kts 153°
2026-05-07 15:40 7.04714 121.99528 36894 ft 486 kts 153°
2026-05-07 15:40 6.98665 122.02502 36896 ft 485 kts 153°
2026-05-07 15:41 6.92583 122.05491 36881 ft 486 kts 153°
2026-05-07 15:41 6.86648 122.08779 36862 ft 487 kts 149°
2026-05-07 15:42 6.80767 122.12186 36853 ft 486 kts 149°
2026-05-07 15:42 6.74898 122.15567 36846 ft 486 kts 149°
2026-05-07 15:43 6.69000 122.18951 36844 ft 486 kts 149°
2026-05-07 15:43 6.63119 122.22318 36845 ft 486 kts 149°
2026-05-07 15:44 6.57238 122.25681 36839 ft 486 kts 149°
2026-05-07 15:44 6.51352 122.29045 36834 ft 486 kts 149°
2026-05-07 15:45 6.45473 122.32402 36833 ft 487 kts 149°
2026-05-07 15:45 6.39548 122.35784 36832 ft 488 kts 150°
2026-05-07 15:46 6.30716 122.40823 36835 ft 488 kts 150°
2026-05-07 15:47 6.24811 122.44192 36833 ft 487 kts 149°
2026-05-07 15:47 6.18875 122.47576 36833 ft 488 kts 149°
2026-05-07 15:48 6.12975 122.50940 36832 ft 488 kts 149°
2026-05-07 15:48 6.07078 122.54300 36828 ft 487 kts 149°
2026-05-07 15:49 6.01151 122.57677 36834 ft 489 kts 150°
2026-05-07 15:49 5.95239 122.61044 36840 ft 488 kts 150°
2026-05-07 15:50 5.89310 122.64421 36841 ft 488 kts 150°
2026-05-07 15:50 5.83408 122.67781 36834 ft 487 kts 150°
2026-05-07 15:51 5.77525 122.71130 36827 ft 487 kts 150°
2026-05-07 15:51 5.71619 122.74490 36827 ft 486 kts 150°
2026-05-07 15:52 5.65707 122.77854 36827 ft 486 kts 150°
2026-05-07 15:52 5.59814 122.81206 36827 ft 487 kts 150°
2026-05-07 15:53 5.53917 122.84559 36826 ft 486 kts 150°
2026-05-07 15:53 5.48026 122.87908 36826 ft 485 kts 150°
2026-05-07 15:54 5.42177 122.91233 36827 ft 486 kts 150°
2026-05-07 15:54 5.36281 122.94583 36827 ft 486 kts 150°
2026-05-07 15:55 5.30392 122.97929 36826 ft 485 kts 150°
2026-05-07 15:55 5.24527 123.01260 36825 ft 485 kts 150°
2026-05-07 15:56 5.18634 123.04607 36828 ft 486 kts 150°
2026-05-07 15:56 5.12750 123.07948 36828 ft 484 kts 150°
2026-05-07 15:57 5.06891 123.11273 36826 ft 484 kts 150°
2026-05-07 15:57 5.01011 123.14610 36825 ft 484 kts 150°
2026-05-07 15:58 4.95160 123.17930 36827 ft 484 kts 150°
2026-05-07 15:58 4.89260 123.21277 36828 ft 484 kts 150°
2026-05-07 15:59 4.83409 123.24596 36833 ft 484 kts 150°
2026-05-07 15:59 4.77550 123.27917 36839 ft 485 kts 150°
2026-05-07 16:00 4.71652 123.31261 36843 ft 485 kts 150°
2026-05-07 16:00 4.65797 123.34580 36847 ft 484 kts 150°
2026-05-07 16:01 4.59916 123.37913 36847 ft 485 kts 150°
2026-05-07 16:01 4.54024 123.41251 36848 ft 485 kts 150°
2026-05-07 16:02 4.48144 123.44582 36847 ft 484 kts 150°
2026-05-07 16:02 4.42286 123.47900 36849 ft 484 kts 150°
2026-05-07 16:03 4.36405 123.51231 36848 ft 484 kts 150°
2026-05-07 16:03 4.30562 123.54539 36847 ft 485 kts 150°
2026-05-07 16:04 4.24677 123.57870 36848 ft 485 kts 150°
2026-05-07 16:04 4.18807 123.61193 36847 ft 484 kts 150°
2026-05-07 16:05 4.12903 123.64534 36841 ft 484 kts 150°
2026-05-07 16:05 4.07029 123.67857 36838 ft 484 kts 150°
2026-05-07 16:06 4.01163 123.71175 36832 ft 485 kts 150°
2026-05-07 16:06 3.95347 123.74572 36828 ft 485 kts 149°
2026-05-07 16:07 3.89522 123.78058 36827 ft 484 kts 148°
2026-05-07 16:07 3.83757 123.81500 36824 ft 484 kts 149°
2026-05-07 16:08 3.77964 123.84955 36827 ft 483 kts 148°
2026-05-07 16:08 3.72175 123.88405 36825 ft 483 kts 148°
2026-05-07 16:09 3.66372 123.91861 36827 ft 484 kts 148°
2026-05-07 16:09 3.60609 123.95292 36827 ft 483 kts 149°
2026-05-07 16:10 3.54817 123.98740 36825 ft 482 kts 149°
2026-05-07 16:10 3.49042 124.02177 36825 ft 482 kts 148°
2026-05-07 16:11 3.43294 124.05597 36830 ft 480 kts 149°
2026-05-07 16:11 3.37552 124.09013 36833 ft 480 kts 148°
2026-05-07 16:12 3.31806 124.12431 36842 ft 480 kts 148°
2026-05-07 16:12 3.26071 124.15842 36841 ft 480 kts 148°
2026-05-07 16:13 3.20312 124.19267 36844 ft 481 kts 148°
2026-05-07 16:13 3.14548 124.22694 36846 ft 481 kts 148°
2026-05-07 16:14 3.08813 124.26104 36845 ft 480 kts 148°
2026-05-07 16:14 3.03057 124.29526 36847 ft 479 kts 148°
2026-05-07 16:15 2.97330 124.32930 36847 ft 480 kts 148°
2026-05-07 16:15 2.91595 124.36339 36847 ft 479 kts 148°
2026-05-07 16:16 2.85829 124.39765 36847 ft 481 kts 148°
2026-05-07 16:16 2.80097 124.43171 36847 ft 481 kts 148°
2026-05-07 16:17 2.74315 124.46606 36847 ft 480 kts 148°
2026-05-07 16:17 2.68575 124.50016 36847 ft 478 kts 148°
2026-05-07 16:18 2.62854 124.53414 36842 ft 479 kts 148°
2026-05-07 16:18 2.57131 124.56813 36838 ft 479 kts 148°
2026-05-07 16:19 2.51379 124.60229 36831 ft 479 kts 148°
2026-05-07 16:19 2.45653 124.63629 36827 ft 479 kts 148°
2026-05-07 16:20 2.39939 124.67022 36827 ft 478 kts 148°
2026-05-07 16:20 2.34211 124.70422 36828 ft 478 kts 148°
2026-05-07 16:21 2.28473 124.73828 36827 ft 477 kts 148°
2026-05-07 16:21 2.22769 124.77214 36828 ft 477 kts 148°
2026-05-07 16:22 2.17070 124.80596 36827 ft 476 kts 149°
2026-05-07 16:22 2.11357 124.83987 36827 ft 476 kts 149°
2026-05-07 16:23 2.05689 124.87350 36827 ft 476 kts 149°
2026-05-07 16:23 1.99947 124.90724 36827 ft 477 kts 149°
2026-05-07 16:24 1.94223 124.94064 36831 ft 477 kts 149°
2026-05-07 16:24 1.88490 124.97411 36832 ft 476 kts 149°
2026-05-07 16:25 1.82742 125.00766 36846 ft 476 kts 149°
2026-05-07 16:25 1.77052 125.04089 36845 ft 476 kts 149°
2026-05-07 16:26 1.71454 125.07357 36860 ft 476 kts 149°
2026-05-07 16:27 1.66772 125.10091 36868 ft 476 kts 149°
2026-05-07 16:27 1.61036 125.13440 36873 ft 475 kts 149°
2026-05-07 16:28 1.55340 125.16766 36874 ft 476 kts 149°
2026-05-07 16:28 1.49590 125.20122 36870 ft 476 kts 149°
2026-05-07 16:29 1.43863 125.23466 36861 ft 475 kts 149°
2026-05-07 16:29 1.38150 125.26801 36853 ft 476 kts 149°
2026-05-07 16:30 1.32440 125.30134 36847 ft 475 kts 149°
2026-05-07 16:30 1.26718 125.33474 36842 ft 476 kts 149°
2026-05-07 16:31 1.21004 125.36809 36833 ft 476 kts 149°
2026-05-07 16:31 1.15257 125.40163 36828 ft 476 kts 149°
2026-05-07 16:32 1.09554 125.43491 36827 ft 475 kts 149°
2026-05-07 16:32 1.03824 125.46835 36829 ft 474 kts 149°
2026-05-07 16:33 0.98120 125.50163 36837 ft 475 kts 149°
2026-05-07 16:33 0.92424 125.53487 36839 ft 475 kts 149°
2026-05-07 16:34 0.86688 125.56834 36835 ft 475 kts 149°
2026-05-07 16:34 0.80961 125.60176 36840 ft 475 kts 149°
2026-05-07 16:35 0.75244 125.63512 36845 ft 475 kts 149°
2026-05-07 16:35 0.69569 125.66822 36847 ft 474 kts 149°
2026-05-07 16:36 0.63821 125.70176 36849 ft 474 kts 149°
2026-05-07 16:36 0.58122 125.73502 36850 ft 475 kts 149°
2026-05-07 16:37 0.52430 125.76822 36850 ft 475 kts 149°
2026-05-07 16:37 0.46710 125.80158 36849 ft 475 kts 149°
2026-05-07 16:38 0.40979 125.83502 36849 ft 474 kts 149°
2026-05-07 16:38 0.35299 125.86816 36850 ft 475 kts 149°
2026-05-07 16:39 0.29574 125.90155 36851 ft 474 kts 149°
2026-05-07 16:39 0.23865 125.93485 36848 ft 474 kts 149°
2026-05-07 16:40 0.18189 125.96797 36849 ft 475 kts 149°
2026-05-07 16:40 0.12454 126.00142 36841 ft 475 kts 149°
2026-05-07 16:41 0.06759 126.03464 36832 ft 475 kts 149°
2026-05-07 16:41 0.01014 126.06815 36829 ft 475 kts 149°
2026-05-07 16:42 -0.04678 126.10136 36827 ft 473 kts 149°
2026-05-07 16:42 -0.10357 126.13448 36829 ft 474 kts 149°
2026-05-07 16:43 -0.16091 126.16793 36828 ft 474 kts 149°
2026-05-07 16:43 -0.21771 126.20107 36826 ft 475 kts 149°
2026-05-07 16:44 -0.27473 126.23434 36828 ft 475 kts 149°
2026-05-07 16:44 -0.33198 126.26772 36826 ft 474 kts 149°
2026-05-07 16:45 -0.38879 126.30087 36826 ft 474 kts 149°
2026-05-07 16:45 -0.44587 126.33417 36826 ft 474 kts 149°
2026-05-07 16:46 -0.50310 126.36755 36825 ft 475 kts 149°
2026-05-07 16:46 -0.56020 126.40086 36825 ft 474 kts 149°
2026-05-07 16:47 -0.61713 126.43407 36826 ft 474 kts 149°
2026-05-07 16:47 -0.67449 126.46755 36826 ft 475 kts 149°
2026-05-07 16:48 -0.73135 126.50072 36825 ft 475 kts 149°
2026-05-07 16:48 -0.78881 126.53425 36825 ft 474 kts 149°
2026-05-07 16:49 -0.84559 126.56737 36825 ft 474 kts 149°
2026-05-07 16:49 -0.90262 126.60065 36825 ft 475 kts 149°
2026-05-07 16:50 -0.95971 126.63397 36825 ft 476 kts 149°
2026-05-07 16:50 -1.01720 126.66751 36831 ft 476 kts 149°
2026-05-07 16:51 -1.07452 126.70097 36842 ft 476 kts 149°
2026-05-07 16:51 -1.13162 126.73428 36847 ft 476 kts 149°
2026-05-07 16:52 -1.18879 126.76765 36847 ft 475 kts 149°
2026-05-07 16:52 -1.24590 126.80098 36847 ft 476 kts 149°
2026-05-07 16:53 -1.30326 126.83446 36847 ft 477 kts 149°
2026-05-07 16:53 -1.36080 126.86805 36846 ft 477 kts 149°
2026-05-07 16:54 -1.41820 126.90156 36846 ft 477 kts 149°
2026-05-07 16:54 -1.47548 126.93500 36844 ft 477 kts 149°
2026-05-07 16:55 -1.53268 126.96838 36838 ft 477 kts 149°
2026-05-07 16:55 -1.59002 127.00186 36838 ft 477 kts 149°
2026-05-07 16:56 -1.64773 127.03556 36837 ft 478 kts 149°
2026-05-07 16:56 -1.73368 127.08575 36831 ft 478 kts 149°
2026-05-07 16:57 -1.79123 127.11935 36826 ft 479 kts 149°
2026-05-07 16:57 -1.84867 127.15290 36826 ft 478 kts 149°
2026-05-07 16:58 -1.90633 127.18658 36826 ft 477 kts 149°
2026-05-07 16:58 -1.96344 127.21994 36826 ft 477 kts 149°
2026-05-07 16:59 -2.02111 127.25363 36827 ft 478 kts 149°
2026-05-07 16:59 -2.07848 127.28714 36827 ft 478 kts 149°
2026-05-07 17:00 -2.13580 127.32063 36827 ft 478 kts 149°
2026-05-07 17:00 -2.19329 127.35422 36826 ft 478 kts 149°
2026-05-07 17:01 -2.25101 127.38796 36827 ft 479 kts 149°
2026-05-07 17:01 -2.30837 127.42148 36827 ft 479 kts 149°
2026-05-07 17:02 -2.36603 127.45518 36827 ft 480 kts 149°
2026-05-07 17:02 -2.42391 127.48901 36827 ft 479 kts 149°
2026-05-07 17:03 -2.48136 127.52260 36827 ft 479 kts 149°
2026-05-07 17:03 -2.53894 127.55626 36830 ft 479 kts 149°
2026-05-07 17:04 -2.59694 127.59017 36830 ft 480 kts 149°
2026-05-07 17:04 -2.65463 127.62391 36833 ft 480 kts 149°
2026-05-07 17:05 -2.71228 127.65762 36834 ft 481 kts 149°
2026-05-07 17:05 -2.76994 127.69134 36836 ft 481 kts 149°
2026-05-07 17:06 -2.82787 127.72523 36845 ft 481 kts 149°
2026-05-07 17:06 -2.88575 127.75909 36846 ft 480 kts 149°
2026-05-07 17:07 -2.94328 127.79275 36847 ft 480 kts 149°
2026-05-07 17:07 -3.00122 127.82666 36847 ft 480 kts 149°
2026-05-07 17:08 -3.05892 127.86043 36853 ft 479 kts 149°
2026-05-07 17:08 -3.11645 127.89410 36864 ft 480 kts 149°
2026-05-07 17:09 -3.17415 127.92788 36881 ft 480 kts 149°
2026-05-07 17:09 -3.23169 127.96157 36902 ft 480 kts 149°
2026-05-07 17:10 -3.28967 127.99552 36913 ft 480 kts 149°
2026-05-07 17:10 -3.34709 128.02914 36896 ft 480 kts 149°
2026-05-07 17:11 -3.40499 128.06306 36879 ft 480 kts 149°
2026-05-07 17:11 -3.46273 128.09689 36864 ft 480 kts 149°
2026-05-07 17:12 -3.52029 128.13062 36858 ft 480 kts 149°
2026-05-07 17:12 -3.57825 128.16457 36857 ft 481 kts 149°
2026-05-07 17:13 -3.63857 128.19293 36853 ft 482 kts 162°
2026-05-07 17:13 -3.70282 128.21228 36853 ft 481 kts 163°
2026-05-07 17:14 -3.76733 128.23145 36850 ft 481 kts 163°
2026-05-07 17:14 -3.83136 128.25047 36850 ft 483 kts 163°
2026-05-07 17:15 -3.89583 128.26964 36850 ft 482 kts 163°
2026-05-07 17:15 -3.96037 128.28885 36848 ft 482 kts 163°
2026-05-07 17:16 -4.02451 128.30794 36852 ft 482 kts 163°
2026-05-07 17:16 -4.08917 128.32719 36849 ft 482 kts 163°
2026-05-07 17:17 -4.15340 128.34631 36855 ft 482 kts 163°
2026-05-07 17:17 -4.21757 128.36542 36861 ft 482 kts 163°
2026-05-07 17:18 -4.28207 128.38464 36870 ft 482 kts 163°
2026-05-07 17:18 -4.34660 128.40387 36865 ft 483 kts 163°
2026-05-07 17:19 -4.41137 128.42316 36860 ft 483 kts 163°
2026-05-07 17:19 -4.47589 128.44240 36857 ft 483 kts 163°
2026-05-07 17:20 -4.54063 128.46168 36849 ft 483 kts 163°
2026-05-07 17:20 -4.60525 128.48096 36849 ft 484 kts 163°
2026-05-07 17:21 -4.66977 128.50020 36849 ft 483 kts 163°
2026-05-07 17:21 -4.73461 128.51953 36851 ft 484 kts 163°
2026-05-07 17:22 -4.79898 128.53874 36849 ft 484 kts 163°
2026-05-07 17:22 -4.86368 128.55804 36851 ft 485 kts 163°
2026-05-07 17:23 -4.92859 128.57742 36851 ft 485 kts 163°
2026-05-07 17:23 -4.99369 128.59685 36851 ft 484 kts 164°
2026-05-07 17:24 -5.05818 128.61610 36848 ft 483 kts 164°
2026-05-07 17:24 -5.12280 128.63539 36848 ft 484 kts 164°
2026-05-07 17:25 -5.18745 128.65471 36846 ft 485 kts 164°
2026-05-07 17:25 -5.25241 128.67412 36844 ft 484 kts 164°
2026-05-07 17:26 -5.31706 128.69344 36847 ft 484 kts 164°
2026-05-07 17:26 -5.38168 128.71275 36846 ft 484 kts 164°
2026-05-07 17:27 -5.44643 128.73210 36847 ft 484 kts 164°
2026-05-07 17:27 -5.51087 128.75137 36846 ft 483 kts 164°
2026-05-07 17:28 -5.57561 128.77074 36845 ft 483 kts 164°
2026-05-07 17:28 -5.64015 128.79004 36847 ft 484 kts 164°
2026-05-07 17:29 -5.70480 128.80939 36846 ft 484 kts 165°
2026-05-07 17:29 -5.76946 128.82875 36844 ft 484 kts 165°
2026-05-07 17:30 -5.83411 128.84810 36844 ft 484 kts 165°
2026-05-07 17:30 -5.89860 128.86740 36847 ft 483 kts 165°
2026-05-07 17:31 -5.96292 128.88667 36847 ft 483 kts 165°
2026-05-07 17:31 -6.02759 128.90605 36857 ft 484 kts 165°
2026-05-07 17:32 -6.09246 128.92549 36866 ft 483 kts 165°
2026-05-07 17:32 -6.15690 128.94479 36865 ft 483 kts 165°
2026-05-07 17:33 -6.22138 128.96413 36869 ft 483 kts 165°
2026-05-07 17:33 -6.28590 128.98347 36870 ft 483 kts 165°
2026-05-07 17:34 -6.35062 129.00290 36869 ft 483 kts 165°
2026-05-07 17:34 -6.41502 129.02222 36867 ft 484 kts 165°
2026-05-07 17:35 -6.47985 129.04167 36869 ft 484 kts 165°
2026-05-07 17:35 -6.54428 129.06102 36863 ft 484 kts 165°
2026-05-07 17:36 -6.60907 129.08048 36860 ft 483 kts 165°
2026-05-07 17:36 -6.67334 129.09978 36864 ft 483 kts 165°
2026-05-07 17:37 -6.73816 129.11925 36863 ft 483 kts 165°
2026-05-07 17:37 -6.80263 129.13863 36862 ft 483 kts 165°
2026-05-07 17:38 -6.86740 129.15810 36863 ft 484 kts 165°
2026-05-07 17:38 -6.93210 129.17755 36865 ft 483 kts 165°
2026-05-07 17:39 -6.99646 129.19691 36868 ft 483 kts 165°
2026-05-07 17:39 -7.06099 129.21632 36870 ft 483 kts 165°
2026-05-07 17:40 -7.12452 129.23544 36869 ft 482 kts 165°
2026-05-07 17:40 -7.18912 129.25490 36871 ft 483 kts 165°
2026-05-07 17:41 -7.25358 129.27431 36870 ft 484 kts 165°
2026-05-07 17:41 -7.31800 129.29370 36870 ft 484 kts 165°
2026-05-07 17:42 -7.38275 129.31322 36865 ft 483 kts 165°
2026-05-07 17:42 -7.44710 129.33261 36864 ft 483 kts 165°
2026-05-07 17:43 -7.51193 129.35216 36868 ft 483 kts 165°
2026-05-07 17:43 -7.57622 129.37155 36864 ft 483 kts 165°
2026-05-07 17:44 -7.64079 129.39102 36864 ft 484 kts 165°
2026-05-07 17:44 -7.70546 129.41055 36865 ft 484 kts 165°
2026-05-07 17:45 -7.77004 129.43004 36866 ft 484 kts 165°
2026-05-07 17:45 -7.83504 129.44968 36866 ft 484 kts 165°
2026-05-07 17:46 -7.89945 129.46913 36867 ft 483 kts 165°
2026-05-07 17:46 -7.96392 129.48860 36870 ft 484 kts 165°
2026-05-07 17:47 -8.02859 129.50816 36870 ft 483 kts 165°
2026-05-07 17:47 -8.09328 129.52773 36880 ft 484 kts 165°
2026-05-07 17:48 -8.15809 129.54732 36884 ft 485 kts 165°
2026-05-07 17:48 -8.22264 129.56685 36889 ft 484 kts 165°
2026-05-07 17:49 -8.28745 129.58647 36893 ft 484 kts 165°
2026-05-07 17:49 -8.35189 129.60599 36893 ft 484 kts 165°
2026-05-07 17:50 -8.41643 129.62553 36893 ft 483 kts 165°
2026-05-07 17:50 -8.48096 129.64508 36887 ft 484 kts 165°
2026-05-07 17:51 -8.54585 129.66475 36881 ft 485 kts 165°
2026-05-07 17:51 -8.60963 129.68777 36881 ft 486 kts 161°
2026-05-07 17:52 -8.67278 129.71205 36886 ft 486 kts 161°
2026-05-07 17:52 -8.73629 129.73625 36884 ft 486 kts 161°
2026-05-07 17:53 -8.79981 129.76038 36885 ft 487 kts 162°
2026-05-07 17:53 -8.86334 129.78444 36884 ft 486 kts 162°
2026-05-07 17:54 -8.92650 129.80833 36887 ft 486 kts 162°
2026-05-07 17:54 -8.98986 129.83231 36889 ft 485 kts 162°
2026-05-07 17:55 -9.05332 129.85631 36888 ft 485 kts 162°
2026-05-07 17:55 -9.11701 129.88040 36886 ft 487 kts 162°
2026-05-07 17:56 -9.18027 129.90434 36888 ft 487 kts 162°
2026-05-07 17:56 -9.24406 129.92850 36888 ft 486 kts 162°
2026-05-07 17:57 -9.29669 129.94842 36887 ft 486 kts 162°
2026-05-07 17:57 -9.37087 129.97653 36885 ft 487 kts 162°
2026-05-07 17:58 -9.43458 130.00067 36889 ft 487 kts 162°
2026-05-07 17:58 -9.49835 130.02486 36885 ft 487 kts 162°
2026-05-07 17:59 -9.56172 130.04889 36885 ft 488 kts 162°
2026-05-07 17:59 -9.62551 130.07309 36889 ft 489 kts 162°
2026-05-07 18:00 -9.68920 130.09726 36886 ft 489 kts 162°
2026-05-07 18:00 -9.75287 130.12144 36888 ft 489 kts 162°
2026-05-07 18:01 -9.81659 130.14565 36887 ft 489 kts 162°
2026-05-07 18:01 -9.88066 130.17000 36887 ft 487 kts 162°
2026-05-07 18:02 -9.97592 130.20622 36893 ft 488 kts 163°
2026-05-07 18:03 -10.03955 130.23044 36903 ft 488 kts 163°
2026-05-07 18:03 -10.10306 130.25461 36908 ft 487 kts 163°
2026-05-07 18:04 -10.16669 130.27884 36907 ft 488 kts 163°
2026-05-07 18:04 -10.23061 130.30318 36907 ft 488 kts 163°
2026-05-07 18:05 -10.29381 130.32727 36907 ft 488 kts 163°
2026-05-07 18:05 -10.35768 130.35161 36907 ft 489 kts 163°
2026-05-07 18:06 -10.42158 130.37599 36908 ft 489 kts 163°
2026-05-07 18:06 -10.48568 130.40045 36908 ft 488 kts 163°
2026-05-07 18:07 -10.54935 130.42476 36909 ft 489 kts 163°
2026-05-07 18:07 -10.61338 130.44920 36905 ft 490 kts 163°
2026-05-07 18:08 -10.67744 130.47369 36896 ft 492 kts 163°
2026-05-07 18:08 -10.74145 130.49815 36891 ft 490 kts 163°
2026-05-07 18:09 -10.80537 130.52260 36891 ft 490 kts 162°
2026-05-07 18:09 -10.86909 130.54698 36894 ft 492 kts 163°
2026-05-07 18:10 -10.93343 130.57161 36893 ft 491 kts 163°
2026-05-07 18:10 -10.99737 130.59610 36896 ft 491 kts 163°
2026-05-07 18:11 -11.06146 130.62065 36894 ft 492 kts 163°
2026-05-07 18:11 -11.12565 130.64526 36898 ft 493 kts 163°
2026-05-07 18:12 -11.18993 130.66992 36891 ft 492 kts 163°
2026-05-07 18:12 -11.25413 130.69455 36889 ft 493 kts 163°
2026-05-07 18:13 -11.31847 130.71925 36892 ft 492 kts 163°
2026-05-07 18:13 -11.38282 130.74396 36894 ft 492 kts 163°
2026-05-07 18:14 -11.44718 130.76869 36895 ft 493 kts 163°
2026-05-07 18:14 -11.51153 130.79344 36897 ft 493 kts 163°
2026-05-07 18:15 -11.57563 130.81808 36899 ft 493 kts 163°
2026-05-07 18:15 -11.64017 130.84293 36903 ft 492 kts 163°
2026-05-07 18:16 -11.70445 130.86768 36904 ft 492 kts 163°
2026-05-07 18:16 -11.76853 130.89237 36908 ft 493 kts 163°
2026-05-07 18:17 -11.83254 130.91702 36908 ft 493 kts 163°
2026-05-07 18:17 -11.89721 130.94196 36909 ft 493 kts 163°
2026-05-07 18:18 -11.96140 130.96672 36909 ft 493 kts 163°
2026-05-07 18:18 -12.02612 130.99170 36908 ft 494 kts 163°
2026-05-07 18:19 -12.09041 131.01653 36909 ft 495 kts 163°
2026-05-07 18:19 -12.15475 131.04140 36912 ft 495 kts 163°
2026-05-07 18:20 -12.21954 131.06644 36913 ft 494 kts 163°
2026-05-07 18:20 -12.28428 131.09148 36915 ft 496 kts 163°
2026-05-07 18:21 -12.34870 131.11641 36917 ft 495 kts 163°
2026-05-07 18:21 -12.41366 131.14156 36924 ft 497 kts 163°
2026-05-07 18:22 -12.47826 131.16658 36926 ft 497 kts 163°
2026-05-07 18:22 -12.54306 131.19170 36935 ft 497 kts 163°
2026-05-07 18:23 -12.60784 131.21683 36937 ft 498 kts 163°
2026-05-07 18:23 -12.67259 131.24194 36940 ft 499 kts 163°
2026-05-07 18:24 -12.73709 131.26903 36944 ft 499 kts 161°
2026-05-07 18:24 -12.80142 131.29639 36949 ft 500 kts 162°
2026-05-07 18:25 -12.86562 131.32362 36948 ft 499 kts 162°
2026-05-07 18:25 -12.92996 131.35091 36955 ft 499 kts 162°
2026-05-07 18:26 -12.99431 131.37817 36963 ft 501 kts 162°
2026-05-07 18:26 -13.05846 131.40536 36967 ft 501 kts 162°
2026-05-07 18:27 -13.12296 131.43271 36970 ft 499 kts 162°
2026-05-07 18:27 -13.18751 131.46008 36971 ft 500 kts 162°
2026-05-07 18:28 -13.25192 131.48743 36973 ft 499 kts 162°
2026-05-07 18:28 -13.31613 131.51469 36972 ft 499 kts 162°
2026-05-07 18:29 -13.37996 131.54181 36978 ft 499 kts 162°
2026-05-07 18:29 -13.44457 131.56926 36978 ft 500 kts 162°
2026-05-07 18:30 -13.50884 131.59660 36982 ft 498 kts 162°
2026-05-07 18:30 -13.57296 131.62389 36982 ft 500 kts 162°
2026-05-07 18:31 -13.63682 131.65108 36986 ft 498 kts 162°
2026-05-07 18:31 -13.70140 131.67860 36971 ft 499 kts 162°
2026-05-07 18:32 -13.76515 131.70578 36972 ft 499 kts 162°
2026-05-07 18:32 -13.82938 131.73318 36973 ft 498 kts 162°
2026-05-07 18:33 -13.89344 131.76051 36979 ft 500 kts 162°
2026-05-07 18:33 -13.95785 131.78803 36984 ft 499 kts 163°
2026-05-07 18:34 -14.02199 131.81543 36985 ft 499 kts 163°
2026-05-07 18:34 -14.08583 131.84274 36980 ft 497 kts 163°
2026-05-07 18:35 -14.15018 131.87027 36983 ft 498 kts 163°
2026-05-07 18:35 -14.21387 131.89754 36985 ft 498 kts 163°
2026-05-07 18:36 -14.27804 131.92502 36986 ft 499 kts 163°
2026-05-07 18:36 -14.34211 131.95248 36995 ft 498 kts 163°
2026-05-07 18:37 -14.40624 131.98000 36992 ft 497 kts 163°
2026-05-07 18:37 -14.47003 132.00737 36994 ft 496 kts 163°
2026-05-07 18:38 -14.53381 132.03476 36995 ft 497 kts 163°
2026-05-07 18:38 -14.59788 132.06229 36994 ft 498 kts 163°
2026-05-07 18:39 -14.66186 132.08981 36999 ft 496 kts 163°
2026-05-07 18:39 -14.72553 132.11720 37003 ft 497 kts 163°
2026-05-07 18:40 -14.78971 132.14482 36998 ft 497 kts 163°
2026-05-07 18:40 -14.85342 132.17229 37002 ft 494 kts 163°
2026-05-07 18:41 -14.91715 132.19974 37005 ft 497 kts 163°
2026-05-07 18:41 -14.98096 132.22728 37016 ft 497 kts 164°
2026-05-07 18:42 -15.04467 132.25478 37015 ft 495 kts 164°
2026-05-07 18:42 -15.10831 132.28227 37008 ft 496 kts 164°
2026-05-07 18:43 -15.17209 132.30983 37012 ft 495 kts 164°
2026-05-07 18:43 -15.23567 132.33733 37014 ft 496 kts 164°
2026-05-07 18:44 -15.29954 132.36497 37017 ft 496 kts 164°
2026-05-07 18:44 -15.36354 132.39269 37018 ft 496 kts 164°
2026-05-07 18:45 -15.42709 132.42023 37019 ft 496 kts 164°
2026-05-07 18:45 -15.49122 132.44803 37023 ft 498 kts 164°
2026-05-07 18:46 -15.55476 132.47560 37029 ft 498 kts 164°
2026-05-07 18:46 -15.61888 132.50346 37027 ft 496 kts 164°
2026-05-07 18:47 -15.68260 132.53114 37030 ft 497 kts 164°
2026-05-07 18:47 -15.74675 132.55904 37030 ft 499 kts 165°
2026-05-07 18:48 -15.81065 132.58684 37033 ft 499 kts 165°
2026-05-07 18:48 -15.87487 132.61481 37035 ft 499 kts 165°
2026-05-07 18:49 -15.93911 132.64279 37037 ft 497 kts 165°
2026-05-07 18:49 -16.00278 132.67055 37017 ft 499 kts 165°
2026-05-07 18:50 -16.06710 132.69861 37023 ft 499 kts 165°
2026-05-07 18:50 -16.13101 132.72653 37026 ft 499 kts 165°
2026-05-07 18:51 -16.19536 132.75464 37028 ft 501 kts 165°
2026-05-07 18:51 -16.25923 132.78256 37028 ft 500 kts 165°
2026-05-07 18:52 -16.32366 132.81076 37029 ft 500 kts 165°
2026-05-07 18:52 -16.38772 132.83881 37031 ft 500 kts 165°
2026-05-07 18:53 -16.45168 132.86684 37034 ft 499 kts 165°
2026-05-07 18:53 -16.51582 132.89496 37036 ft 501 kts 165°
2026-05-07 18:54 -16.58035 132.92328 37036 ft 501 kts 165°
2026-05-07 18:54 -16.64445 132.95143 37040 ft 501 kts 165°
2026-05-07 18:55 -16.70886 132.97972 37043 ft 501 kts 165°
2026-05-07 18:55 -16.77311 133.00798 37043 ft 501 kts 165°
2026-05-07 18:56 -16.83766 133.03639 37049 ft 503 kts 166°
2026-05-07 18:56 -16.90187 133.06468 37046 ft 500 kts 166°
2026-05-07 18:57 -16.96632 133.09308 37047 ft 503 kts 166°
2026-05-07 18:57 -17.03062 133.12144 37050 ft 501 kts 166°
2026-05-07 18:58 -17.09518 133.14993 37056 ft 503 kts 166°
2026-05-07 18:58 -17.15949 133.17835 37056 ft 503 kts 166°
2026-05-07 18:59 -17.22387 133.20682 37059 ft 502 kts 166°
2026-05-07 18:59 -17.28849 133.23540 37061 ft 502 kts 166°
2026-05-07 19:00 -17.35327 133.26407 37068 ft 505 kts 166°
2026-05-07 19:00 -17.41812 133.29282 37069 ft 503 kts 166°
2026-05-07 19:01 -17.48278 133.32149 37070 ft 507 kts 166°
2026-05-07 19:01 -17.54746 133.35020 37076 ft 504 kts 166°
2026-05-07 19:02 -17.61222 133.37895 37076 ft 504 kts 166°
2026-05-07 19:02 -17.67667 133.40761 37080 ft 505 kts 166°
2026-05-07 19:03 -17.74157 133.43648 37085 ft 506 kts 166°
2026-05-07 19:03 -17.80610 133.46521 37087 ft 505 kts 166°
2026-05-07 19:04 -17.87075 133.49400 37089 ft 506 kts 166°
2026-05-07 19:04 -17.93611 133.52315 37092 ft 506 kts 166°
2026-05-07 19:05 -18.00067 133.55196 37094 ft 507 kts 166°
2026-05-07 19:05 -18.06540 133.58087 37096 ft 506 kts 166°
2026-05-07 19:06 -18.13046 133.60997 37095 ft 504 kts 166°
2026-05-07 19:06 -18.22788 133.65352 37093 ft 507 kts 166°
2026-05-07 19:07 -18.29312 133.68275 37075 ft 508 kts 166°
2026-05-07 19:07 -18.35820 133.71190 37077 ft 512 kts 166°
2026-05-07 19:08 -18.42372 133.74132 37084 ft 508 kts 166°
2026-05-07 19:08 -18.48878 133.77054 37084 ft 512 kts 166°
2026-05-07 19:09 -18.55425 133.79999 37089 ft 511 kts 166°
2026-05-07 19:09 -18.61958 133.82938 37091 ft 513 kts 166°
2026-05-07 19:10 -18.68547 133.85906 37090 ft 514 kts 166°
2026-05-07 19:10 -18.75093 133.88858 37092 ft 514 kts 166°
2026-05-07 19:11 -18.81642 133.91814 37095 ft 511 kts 166°
2026-05-07 19:11 -18.88236 133.94791 37100 ft 513 kts 166°
2026-05-07 19:12 -18.94835 133.97772 37103 ft 515 kts 166°
2026-05-07 19:12 -19.01425 134.00754 37111 ft 518 kts 166°
2026-05-07 19:13 -19.08075 134.03764 37109 ft 516 kts 166°
2026-05-07 19:13 -19.14658 134.06747 37114 ft 521 kts 166°
2026-05-07 19:14 -19.21302 134.09763 37115 ft 516 kts 166°
2026-05-07 19:14 -19.27887 134.12752 37121 ft 517 kts 166°
2026-05-07 19:15 -19.34540 134.15775 37124 ft 515 kts 166°
2026-05-07 19:15 -19.41146 134.18776 37126 ft 520 kts 166°
2026-05-07 19:16 -19.47776 134.21797 37131 ft 517 kts 166°
2026-05-07 19:16 -19.54427 134.24826 37134 ft 518 kts 166°
2026-05-07 19:17 -19.61066 134.27853 37134 ft 519 kts 166°
2026-05-07 19:17 -19.67704 134.30884 37137 ft 517 kts 166°
2026-05-07 19:18 -19.74318 134.33903 37143 ft 520 kts 166°
2026-05-07 19:18 -19.80961 134.36942 37147 ft 518 kts 166°
2026-05-07 19:19 -19.87630 134.39990 37148 ft 523 kts 166°
2026-05-07 19:19 -19.94329 134.43062 37156 ft 520 kts 166°
2026-05-07 19:20 -20.00954 134.46100 37162 ft 522 kts 166°
2026-05-07 19:20 -20.07646 134.49170 37165 ft 521 kts 166°
2026-05-07 19:21 -20.14324 134.52237 37159 ft 522 kts 166°
2026-05-07 19:21 -20.20969 134.55293 37167 ft 523 kts 166°
2026-05-07 19:22 -20.27688 134.58382 37168 ft 526 kts 166°
2026-05-07 19:22 -20.34371 134.61462 37174 ft 524 kts 165°
2026-05-07 19:23 -20.41058 134.64548 37176 ft 523 kts 166°
2026-05-07 19:23 -20.47744 134.67633 37153 ft 525 kts 165°
2026-05-07 19:24 -20.54437 134.70725 37157 ft 526 kts 165°
2026-05-07 19:24 -20.61143 134.73825 37158 ft 526 kts 165°
2026-05-07 19:25 -20.67921 134.76962 37162 ft 527 kts 165°
2026-05-07 19:25 -20.74641 134.80077 37167 ft 528 kts 165°
2026-05-07 19:26 -20.81351 134.83189 37172 ft 525 kts 165°
2026-05-07 19:26 -20.88076 134.86310 37172 ft 528 kts 165°
2026-05-07 19:27 -20.94842 134.89453 37179 ft 530 kts 165°
2026-05-07 19:27 -21.01587 134.92590 37179 ft 530 kts 165°
2026-05-07 19:28 -21.08366 134.95747 37182 ft 528 kts 165°
2026-05-07 19:28 -21.15097 134.98885 37184 ft 529 kts 165°
2026-05-07 19:29 -21.21826 135.02023 37187 ft 527 kts 165°
2026-05-07 19:29 -21.28598 135.05185 37186 ft 530 kts 165°
2026-05-07 19:30 -21.35356 135.08344 37189 ft 531 kts 165°
2026-05-07 19:30 -21.42115 135.11507 37196 ft 531 kts 165°
2026-05-07 19:31 -21.48823 135.14906 37197 ft 534 kts 161°
2026-05-07 19:31 -21.55457 135.18466 37203 ft 533 kts 161°
2026-05-07 19:32 -21.62119 135.22031 37207 ft 532 kts 161°
2026-05-07 19:32 -21.68750 135.25571 37207 ft 533 kts 161°
2026-05-07 19:33 -21.75434 135.29137 37218 ft 535 kts 161°
2026-05-07 19:33 -21.82086 135.32687 37219 ft 533 kts 161°
2026-05-07 19:34 -21.88749 135.36243 37223 ft 536 kts 161°
2026-05-07 19:34 -21.95407 135.39803 37228 ft 535 kts 161°
2026-05-07 19:35 -22.02051 135.43356 37234 ft 533 kts 161°
2026-05-07 19:35 -22.08729 135.46931 37235 ft 535 kts 161°
2026-05-07 19:36 -22.15410 135.50511 37234 ft 534 kts 161°
2026-05-07 19:36 -22.22032 135.54062 37236 ft 537 kts 161°
2026-05-07 19:37 -22.28738 135.57665 37241 ft 536 kts 161°
2026-05-07 19:37 -22.35407 135.61250 37251 ft 534 kts 161°
2026-05-07 19:38 -22.42061 135.64830 37246 ft 535 kts 161°
2026-05-07 19:38 -22.48691 135.68402 37239 ft 533 kts 160°
2026-05-07 19:39 -22.55347 135.71991 37245 ft 534 kts 161°
2026-05-07 19:39 -22.62010 135.75589 37248 ft 536 kts 160°
2026-05-07 19:40 -22.68705 135.79207 37252 ft 536 kts 160°
2026-05-07 19:40 -22.75352 135.82805 37253 ft 535 kts 160°
2026-05-07 19:41 -22.82025 135.86418 37266 ft 537 kts 160°
2026-05-07 19:41 -22.88697 135.90036 37267 ft 537 kts 160°
2026-05-07 19:42 -22.95375 135.93661 37256 ft 536 kts 160°
2026-05-07 19:42 -23.02021 135.97273 37273 ft 536 kts 160°
2026-05-07 19:43 -23.08702 136.00908 37280 ft 535 kts 160°
2026-05-07 19:43 -23.15368 136.04540 37262 ft 535 kts 160°
2026-05-07 19:44 -23.22023 136.08168 37261 ft 535 kts 160°
2026-05-07 19:44 -23.28676 136.11800 37266 ft 535 kts 160°
2026-05-07 19:45 -23.35307 136.15424 37273 ft 535 kts 160°
2026-05-07 19:45 -23.41974 136.19070 37267 ft 536 kts 160°
2026-05-07 19:46 -23.48612 136.22707 37275 ft 536 kts 159°
2026-05-07 19:46 -23.55260 136.26353 37279 ft 534 kts 159°
2026-05-07 19:47 -23.61923 136.30011 37279 ft 533 kts 159°
2026-05-07 19:47 -23.68546 136.33650 37284 ft 535 kts 159°
2026-05-07 19:48 -23.75203 136.37314 37292 ft 534 kts 159°
2026-05-07 19:48 -23.81817 136.40958 37298 ft 534 kts 159°
2026-05-07 19:49 -23.88440 136.44611 37301 ft 534 kts 159°
2026-05-07 19:49 -23.95059 136.48265 37309 ft 532 kts 159°
2026-05-07 19:50 -24.01657 136.51912 37319 ft 533 kts 159°
2026-05-07 19:50 -24.08268 136.55571 37315 ft 532 kts 159°
2026-05-07 19:51 -24.14879 136.59235 37318 ft 532 kts 159°
2026-05-07 19:51 -24.21511 136.62912 37305 ft 535 kts 159°
2026-05-07 19:52 -24.28104 136.66574 37287 ft 535 kts 158°
2026-05-07 19:52 -24.34684 136.70235 37289 ft 531 kts 158°
2026-05-07 19:53 -24.41303 136.73918 37297 ft 531 kts 158°
2026-05-07 19:53 -24.47915 136.77603 37296 ft 531 kts 158°
2026-05-07 19:54 -24.54466 136.81259 37303 ft 529 kts 158°
2026-05-07 19:54 -24.61072 136.84949 37299 ft 532 kts 158°
2026-05-07 19:55 -24.67703 136.88658 37311 ft 532 kts 158°
2026-05-07 19:55 -24.74242 136.92320 37306 ft 531 kts 158°
2026-05-07 19:56 -24.80836 136.96017 37317 ft 530 kts 158°
2026-05-07 19:56 -24.87392 136.99698 37317 ft 530 kts 158°
2026-05-07 19:57 -24.93988 137.03404 37324 ft 529 kts 158°
2026-05-07 19:57 -25.00519 137.07079 37327 ft 529 kts 158°
2026-05-07 19:58 -25.06970 137.11061 37329 ft 536 kts 148°
2026-05-07 19:58 -25.12705 137.16272 37326 ft 538 kts 142°
2026-05-07 19:59 -25.18411 137.21686 37321 ft 538 kts 143°
2026-05-07 19:59 -25.24040 137.27040 37331 ft 536 kts 142°
2026-05-07 20:00 -25.29709 137.32440 37325 ft 538 kts 142°
2026-05-07 20:00 -25.35383 137.37851 37328 ft 536 kts 142°
2026-05-07 20:01 -25.41017 137.43234 37329 ft 537 kts 142°
2026-05-07 20:01 -25.46675 137.48645 37338 ft 536 kts 142°
2026-05-07 20:02 -25.52317 137.54050 37336 ft 535 kts 142°
2026-05-07 20:02 -25.57926 137.59428 37342 ft 536 kts 142°
2026-05-07 20:03 -25.63539 137.64818 37342 ft 536 kts 142°
2026-05-07 20:03 -25.69172 137.70235 37324 ft 534 kts 142°
2026-05-07 20:04 -25.74793 137.75647 37336 ft 535 kts 142°
2026-05-07 20:04 -25.80400 137.81052 37346 ft 534 kts 142°
2026-05-07 20:05 -25.85995 137.86452 37340 ft 535 kts 142°
2026-05-07 20:05 -25.91590 137.91859 37338 ft 533 kts 141°
2026-05-07 20:06 -25.97171 137.97261 37345 ft 533 kts 142°
2026-05-07 20:06 -26.02759 138.02753 37350 ft 533 kts 140°
2026-05-07 20:07 -26.08181 138.08298 37353 ft 533 kts 140°
2026-05-07 20:07 -26.13638 138.13884 37341 ft 534 kts 140°
2026-05-07 20:08 -26.19108 138.19482 37346 ft 533 kts 140°
2026-05-07 20:08 -26.24567 138.25072 37346 ft 533 kts 140°
2026-05-07 20:09 -26.29999 138.30641 37348 ft 531 kts 140°
2026-05-07 20:10 -26.38153 138.39011 37349 ft 532 kts 140°
2026-05-07 20:10 -26.43584 138.44594 37355 ft 530 kts 140°
2026-05-07 20:11 -26.49016 138.50185 37355 ft 532 kts 140°
2026-05-07 20:11 -26.54316 138.55647 37356 ft 530 kts 140°
2026-05-07 20:12 -26.59746 138.61253 37362 ft 530 kts 140°
2026-05-07 20:12 -26.65151 138.66838 37354 ft 529 kts 140°
2026-05-07 20:13 -26.70575 138.72452 37357 ft 531 kts 140°
2026-05-07 20:13 -26.75954 138.78026 37363 ft 529 kts 139°
2026-05-07 20:14 -26.81340 138.83614 37364 ft 530 kts 139°
2026-05-07 20:14 -26.86728 138.89212 37362 ft 528 kts 140°
2026-05-07 20:15 -26.92096 138.94798 37362 ft 530 kts 139°
2026-05-07 20:15 -26.97476 139.00403 37368 ft 529 kts 140°
2026-05-07 20:16 -27.02877 139.06038 37370 ft 528 kts 139°
2026-05-07 20:16 -27.08247 139.11649 37374 ft 528 kts 139°
2026-05-07 20:17 -27.13607 139.17256 37375 ft 527 kts 139°
2026-05-07 20:17 -27.18937 139.22841 37373 ft 524 kts 139°
2026-05-07 20:18 -27.24291 139.28456 37373 ft 526 kts 139°
2026-05-07 20:18 -27.29634 139.34070 37377 ft 525 kts 139°
2026-05-07 20:19 -27.34940 139.39651 37374 ft 526 kts 139°
2026-05-07 20:19 -27.40264 139.45259 37372 ft 525 kts 139°
2026-05-07 20:20 -27.45583 139.50871 37371 ft 525 kts 139°
2026-05-07 20:20 -27.50930 139.56519 37383 ft 524 kts 139°
2026-05-07 20:21 -27.56224 139.62120 37383 ft 523 kts 139°
2026-05-07 20:21 -27.61523 139.67732 37366 ft 522 kts 139°
2026-05-07 20:22 -27.66832 139.73363 37370 ft 523 kts 139°
2026-05-07 20:22 -27.72124 139.78984 37375 ft 525 kts 139°
2026-05-07 20:23 -27.77416 139.84615 37380 ft 521 kts 139°
2026-05-07 20:23 -27.82708 139.90251 37381 ft 522 kts 139°
2026-05-07 20:24 -27.87969 139.95863 37382 ft 522 kts 139°
2026-05-07 20:24 -27.93236 140.01491 37384 ft 523 kts 138°
2026-05-07 20:25 -27.98531 140.07153 37388 ft 522 kts 138°
2026-05-07 20:25 -28.03779 140.12776 37391 ft 521 kts 138°
2026-05-07 20:26 -28.09028 140.18407 37393 ft 521 kts 138°
2026-05-07 20:26 -28.13868 140.24530 37386 ft 522 kts 131°
2026-05-07 20:27 -28.18524 140.30797 37393 ft 522 kts 131°
2026-05-07 20:27 -28.23218 140.37125 37397 ft 521 kts 131°
2026-05-07 20:28 -28.27883 140.43425 37393 ft 520 kts 131°
2026-05-07 20:28 -28.32528 140.49704 37392 ft 521 kts 131°
2026-05-07 20:29 -28.37171 140.55992 37398 ft 520 kts 131°
2026-05-07 20:29 -28.41819 140.62297 37405 ft 520 kts 131°
2026-05-07 20:30 -28.46470 140.68613 37393 ft 520 kts 131°
2026-05-07 20:30 -28.51097 140.74907 37390 ft 519 kts 131°
2026-05-07 20:31 -28.55702 140.81178 37392 ft 520 kts 131°
2026-05-07 20:31 -28.60337 140.87503 37389 ft 520 kts 131°
2026-05-07 20:32 -28.64964 140.93825 37394 ft 519 kts 131°
2026-05-07 20:32 -28.69558 141.00111 37394 ft 518 kts 131°
2026-05-07 20:33 -28.74175 141.06439 37386 ft 517 kts 131°
2026-05-07 20:33 -28.78766 141.12740 37382 ft 518 kts 131°
2026-05-07 20:34 -28.83348 141.19038 37389 ft 518 kts 131°
2026-05-07 20:34 -28.87958 141.25386 37387 ft 518 kts 131°
2026-05-07 20:35 -28.92522 141.31679 37380 ft 517 kts 131°
2026-05-07 20:35 -28.97089 141.37987 37389 ft 518 kts 131°
2026-05-07 20:36 -29.01668 141.44319 37388 ft 517 kts 131°
2026-05-07 20:36 -29.06256 141.50674 37390 ft 516 kts 131°
2026-05-07 20:37 -29.10815 141.56999 37397 ft 517 kts 131°
2026-05-07 20:37 -29.15376 141.63336 37383 ft 515 kts 131°
2026-05-07 20:38 -29.19908 141.69643 37379 ft 515 kts 131°
2026-05-07 20:38 -29.24480 141.76015 37390 ft 517 kts 131°
2026-05-07 20:39 -29.29025 141.82361 37382 ft 517 kts 131°
2026-05-07 20:39 -29.33583 141.88731 37396 ft 515 kts 131°
2026-05-07 20:40 -29.38129 141.95097 37381 ft 514 kts 131°
2026-05-07 20:40 -29.42634 142.01416 37381 ft 514 kts 131°
2026-05-07 20:41 -29.47149 142.07758 37379 ft 512 kts 131°
2026-05-07 20:41 -29.51670 142.14117 37391 ft 515 kts 131°
2026-05-07 20:42 -29.56180 142.20473 37390 ft 513 kts 131°
2026-05-07 20:42 -29.60690 142.26837 37392 ft 514 kts 131°
2026-05-07 20:43 -29.65185 142.33191 37385 ft 513 kts 131°
2026-05-07 20:43 -29.69692 142.39571 37225 ft 513 kts 131°
2026-05-07 20:43 -29.71920 142.42729 37447 ft 515 kts 131°
2026-05-07 20:44 -29.74168 142.45917 37213 ft 513 kts 131°
2026-05-07 20:44 -29.76407 142.49095 37557 ft 513 kts 131°
2026-05-07 20:44 -29.78653 142.52286 37409 ft 517 kts 131°
2026-05-07 20:44 -29.80922 142.55513 37524 ft 512 kts 131°
2026-05-07 20:45 -29.83167 142.58705 37426 ft 518 kts 131°
2026-05-07 20:45 -29.85415 142.61908 37213 ft 514 kts 131°
2026-05-07 20:45 -29.87652 142.65097 37402 ft 514 kts 131°
2026-05-07 20:46 -29.92144 142.71489 37387 ft 514 kts 131°
2026-05-07 20:46 -29.96664 142.77898 37365 ft 512 kts 131°
2026-05-07 20:47 -30.01135 142.84247 37399 ft 512 kts 131°
2026-05-07 20:47 -30.05607 142.90608 37366 ft 511 kts 131°
2026-05-07 20:48 -30.10090 142.96995 37372 ft 513 kts 131°
2026-05-07 20:48 -30.14611 143.03450 37372 ft 514 kts 131°
2026-05-07 20:49 -30.19084 143.09845 37358 ft 513 kts 131°
2026-05-07 20:49 -30.23552 143.16243 37339 ft 512 kts 131°
2026-05-07 20:49 -30.25784 143.19443 37545 ft 511 kts 131°
2026-05-07 20:50 -30.28007 143.22632 37175 ft 515 kts 131°
2026-05-07 20:50 -30.30237 143.25836 37369 ft 509 kts 131°
2026-05-07 20:50 -30.32476 143.29053 37463 ft 516 kts 131°
2026-05-07 20:51 -30.36931 143.35465 37371 ft 508 kts 131°
2026-05-07 20:51 -30.41357 143.41843 37387 ft 509 kts 131°
2026-05-07 20:52 -30.45801 143.48257 37374 ft 509 kts 131°
2026-05-07 20:52 -30.50226 143.54656 37381 ft 508 kts 131°
2026-05-07 20:53 -30.54630 143.61035 37368 ft 508 kts 131°
2026-05-07 20:53 -30.59055 143.67453 37368 ft 508 kts 130°
2026-05-07 20:54 -30.63464 143.73860 37387 ft 509 kts 130°
2026-05-07 20:54 -30.67864 143.80264 37374 ft 508 kts 131°
2026-05-07 20:55 -30.72255 143.86664 37367 ft 506 kts 130°
2026-05-07 20:55 -30.76654 143.93086 37371 ft 507 kts 130°
2026-05-07 20:56 -30.81030 143.99487 37370 ft 506 kts 130°
2026-05-07 20:56 -30.85415 144.05910 37360 ft 505 kts 130°
2026-05-07 20:57 -30.89800 144.12344 37331 ft 509 kts 130°
2026-05-07 20:57 -30.94210 144.18825 37377 ft 511 kts 130°
2026-05-07 20:58 -30.98618 144.25314 37382 ft 509 kts 131°
2026-05-07 20:58 -31.02986 144.31755 37382 ft 509 kts 131°
2026-05-07 20:59 -31.07361 144.38216 37378 ft 508 kts 131°
2026-05-07 20:59 -31.11753 144.44714 37372 ft 508 kts 131°
2026-05-07 21:00 -31.16112 144.51173 37374 ft 509 kts 130°
2026-05-07 21:00 -31.20494 144.57678 37365 ft 508 kts 131°
2026-05-07 21:01 -31.24837 144.64137 37343 ft 506 kts 131°
2026-05-07 21:01 -31.29177 144.70599 37328 ft 508 kts 130°
2026-05-07 21:02 -31.33511 144.77066 37323 ft 508 kts 130°
2026-05-07 21:02 -31.37852 144.83551 37329 ft 507 kts 130°
2026-05-07 21:03 -31.42206 144.90068 37354 ft 507 kts 130°
2026-05-07 21:03 -31.46530 144.96553 37346 ft 507 kts 130°
2026-05-07 21:04 -31.50835 145.03017 37355 ft 506 kts 130°
2026-05-07 21:04 -31.55155 145.09515 37351 ft 507 kts 130°
2026-05-07 21:05 -31.59469 145.16017 37342 ft 504 kts 131°
2026-05-07 21:05 -31.63794 145.22545 37347 ft 506 kts 131°
2026-05-07 21:06 -31.68106 145.29065 37355 ft 506 kts 131°
2026-05-07 21:06 -31.72400 145.35570 37344 ft 504 kts 130°
2026-05-07 21:07 -31.76693 145.42082 37348 ft 504 kts 130°
2026-05-07 21:07 -31.80948 145.48547 37336 ft 504 kts 130°
2026-05-07 21:08 -31.85244 145.55086 37342 ft 503 kts 130°
2026-05-07 21:08 -31.89515 145.61597 37351 ft 505 kts 130°
2026-05-07 21:09 -31.93774 145.68103 37337 ft 503 kts 130°
2026-05-07 21:09 -31.98023 145.74605 37317 ft 501 kts 130°
2026-05-07 21:10 -32.02317 145.81186 37319 ft 503 kts 130°
2026-05-07 21:10 -32.06569 145.87714 37317 ft 503 kts 130°
2026-05-07 21:11 -32.10811 145.94240 37316 ft 503 kts 130°
2026-05-07 21:11 -32.17217 146.04114 37322 ft 504 kts 130°
2026-05-07 21:12 -32.21456 146.10663 37322 ft 504 kts 130°
2026-05-07 21:12 -32.25701 146.17232 37314 ft 504 kts 130°
2026-05-07 21:13 -32.29929 146.23785 37309 ft 504 kts 130°
2026-05-07 21:13 -32.34158 146.30351 37311 ft 504 kts 130°
2026-05-07 21:14 -32.38398 146.36948 37310 ft 504 kts 130°
2026-05-07 21:14 -32.42620 146.43526 37307 ft 505 kts 130°
2026-05-07 21:15 -32.46858 146.50142 37307 ft 504 kts 131°
2026-05-07 21:15 -32.51069 146.56726 37307 ft 505 kts 131°
2026-05-07 21:16 -32.55307 146.63365 37300 ft 506 kts 131°
2026-05-07 21:16 -32.59553 146.70029 37294 ft 507 kts 130°
2026-05-07 21:17 -32.63805 146.76710 37296 ft 506 kts 130°
2026-05-07 21:17 -32.68027 146.83360 37300 ft 506 kts 130°
2026-05-07 21:18 -32.72264 146.90044 37310 ft 507 kts 130°
2026-05-07 21:18 -32.76505 146.96747 37301 ft 508 kts 130°
2026-05-07 21:19 -32.80743 147.03458 37293 ft 508 kts 131°
2026-05-07 21:19 -32.84973 147.10167 37300 ft 507 kts 131°
2026-05-07 21:20 -32.89188 147.16862 37299 ft 507 kts 131°
2026-05-07 21:20 -32.93422 147.23602 37296 ft 509 kts 131°
2026-05-07 21:21 -32.97635 147.30322 37286 ft 507 kts 131°
2026-05-07 21:21 -33.01872 147.37089 37292 ft 510 kts 131°
2026-05-07 21:22 -33.06083 147.43829 37291 ft 510 kts 131°
2026-05-07 21:22 -33.10337 147.50652 37285 ft 511 kts 131°
2026-05-07 21:23 -33.14542 147.57407 37285 ft 510 kts 131°
2026-05-07 21:23 -33.18792 147.64246 37283 ft 509 kts 131°
2026-05-07 21:24 -33.23010 147.71048 37269 ft 510 kts 131°
2026-05-07 21:24 -33.27242 147.77882 37264 ft 511 kts 131°
2026-05-07 21:25 -33.31437 147.84671 37261 ft 511 kts 131°
2026-05-07 21:25 -33.35650 147.91502 37256 ft 511 kts 131°
2026-05-07 21:26 -33.40165 147.97996 37261 ft 505 kts 139°
2026-05-07 21:26 -33.44987 148.04080 37256 ft 504 kts 139°
2026-05-07 21:27 -33.49803 148.10231 37253 ft 505 kts 139°
2026-05-07 21:27 -33.54565 148.16371 37252 ft 505 kts 139°
2026-05-07 21:28 -33.59320 148.22536 37251 ft 506 kts 139°
2026-05-07 21:28 -33.64075 148.28726 37249 ft 506 kts 139°
2026-05-07 21:29 -33.68843 148.34952 37249 ft 505 kts 139°
2026-05-07 21:29 -33.73591 148.41167 37248 ft 506 kts 139°
2026-05-07 21:30 -33.78328 148.47380 37246 ft 505 kts 139°
2026-05-07 21:30 -33.83055 148.53593 37235 ft 504 kts 139°
2026-05-07 21:31 -33.87800 148.59840 37229 ft 505 kts 139°
2026-05-07 21:31 -33.92545 148.66100 37221 ft 509 kts 139°
2026-05-07 21:32 -33.97280 148.72362 37197 ft 506 kts 139°
2026-05-07 21:32 -34.02031 148.78648 37215 ft 508 kts 139°
2026-05-07 21:33 -34.06752 148.84914 37212 ft 506 kts 139°
2026-05-07 21:33 -34.11488 148.91206 37202 ft 507 kts 139°
2026-05-07 21:34 -34.16221 148.97507 37199 ft 504 kts 139°
2026-05-07 21:34 -34.20944 149.03806 37192 ft 505 kts 139°
2026-05-07 21:35 -34.25672 149.10121 37188 ft 506 kts 139°
2026-05-07 21:35 -34.30348 149.16382 37188 ft 505 kts 139°
2026-05-07 21:36 -34.35057 149.22696 37190 ft 504 kts 139°
2026-05-07 21:36 -34.39655 149.29100 37179 ft 512 kts 132°
2026-05-07 21:37 -34.42995 149.36833 37161 ft 526 kts 114°
2026-05-07 21:37 -34.44532 149.45471 36736 ft 527 kts 102°
2026-05-07 21:38 -34.45070 149.49895 35722 ft 538 kts 102°
2026-05-07 21:38 -34.45609 149.54396 34744 ft 547 kts 103°
2026-05-07 21:38 -34.46152 149.58958 33689 ft 555 kts 103°
2026-05-07 21:38 -34.46703 149.63606 32601 ft 559 kts 103°
2026-05-07 21:39 -34.47249 149.68231 31533 ft 562 kts 102°
2026-05-07 21:39 -34.47803 149.72939 30529 ft 559 kts 103°
2026-05-07 21:39 -34.48340 149.77544 29732 ft 541 kts 103°
2026-05-07 21:39 -34.48851 149.81955 29527 ft 521 kts 103°
2026-05-07 21:40 -34.49211 149.86282 28974 ft 520 kts 96°
2026-05-07 21:40 -34.49073 149.90634 28272 ft 523 kts 86°
2026-05-07 21:40 -34.48401 149.94963 27634 ft 524 kts 77°
2026-05-07 21:40 -34.47209 149.99123 26968 ft 524 kts 68°
2026-05-07 21:41 -34.45633 150.03081 26287 ft 522 kts 64°
2026-05-07 21:41 -34.43979 150.06967 25626 ft 519 kts 64°
2026-05-07 21:41 -34.42325 150.10792 24962 ft 516 kts 64°
2026-05-07 21:41 -34.40664 150.14607 24342 ft 513 kts 63°
2026-05-07 21:42 -34.39000 150.18404 23667 ft 511 kts 64°
2026-05-07 21:42 -34.37344 150.22165 22995 ft 508 kts 63°
2026-05-07 21:42 -34.35674 150.25943 22324 ft 506 kts 63°
2026-05-07 21:42 -34.34022 150.29668 21637 ft 503 kts 63°
2026-05-07 21:43 -34.32385 150.33350 20979 ft 500 kts 63°
2026-05-07 21:43 -34.30750 150.37018 20203 ft 488 kts 63°
2026-05-07 21:43 -34.29184 150.40523 19619 ft 471 kts 63°
2026-05-07 21:43 -34.27646 150.43962 19100 ft 462 kts 63°
2026-05-07 21:44 -34.26133 150.47377 18397 ft 463 kts 64°
2026-05-07 21:44 -34.24620 150.50795 17712 ft 462 kts 63°
2026-05-07 21:44 -34.23106 150.54208 17051 ft 462 kts 63°
2026-05-07 21:44 -34.21615 150.57567 16400 ft 461 kts 63°
2026-05-07 21:45 -34.20092 150.60991 15710 ft 459 kts 63°
2026-05-07 21:45 -34.18585 150.64375 15040 ft 457 kts 63°
2026-05-07 21:45 -34.17102 150.67702 14267 ft 449 kts 62°
2026-05-07 21:45 -34.15658 150.70938 13679 ft 430 kts 62°
2026-05-07 21:46 -34.14267 150.74051 13133 ft 416 kts 63°
2026-05-07 21:46 -34.12902 150.77104 12550 ft 415 kts 63°
2026-05-07 21:46 -34.11715 150.80254 11866 ft 413 kts 73°
2026-05-07 21:46 -34.11076 150.83581 11224 ft 408 kts 86°
2026-05-07 21:47 -34.11012 150.86934 10737 ft 396 kts 99°
2026-05-07 21:47 -34.11547 150.90074 10678 ft 370 kts 114°
2026-05-07 21:47 -34.12652 150.92726 10637 ft 342 kts 130°
2026-05-07 21:47 -34.14031 150.94998 10517 ft 323 kts 139°
2026-05-07 21:48 -34.15712 150.96536 10392 ft 296 kts 159°
2026-05-07 21:48 -34.17492 150.97696 10365 ft 282 kts 158°
2026-05-07 21:48 -34.19167 150.98834 10327 ft 270 kts 158°
2026-05-07 21:48 -34.20813 150.99968 10002 ft 270 kts 159°
2026-05-07 21:49 -34.22486 151.00941 9610 ft 269 kts 162°
2026-05-07 21:49 -34.24203 151.01865 9171 ft 271 kts 163°
2026-05-07 21:49 -34.25928 151.02776 8700 ft 274 kts 163°
2026-05-07 21:49 -34.27703 151.03690 8150 ft 280 kts 162°
2026-05-07 21:50 -34.29502 151.04594 7597 ft 284 kts 163°
2026-05-07 21:50 -34.31291 151.05641 7020 ft 293 kts 149°
2026-05-07 21:50 -34.32660 151.07480 6436 ft 298 kts 123°
2026-05-07 21:50 -34.33234 151.09863 5973 ft 301 kts 98°
2026-05-07 21:51 -34.32920 151.12343 5508 ft 303 kts 71°
2026-05-07 21:51 -34.31765 151.14439 5101 ft 299 kts 43°
2026-05-07 21:51 -34.30175 151.15961 4808 ft 288 kts 36°
2026-05-07 21:51 -34.28553 151.17390 4559 ft 286 kts 36°
2026-05-07 21:52 -34.26947 151.18803 4267 ft 285 kts 36°
2026-05-07 21:52 -34.25357 151.20215 3900 ft 287 kts 36°
2026-05-07 21:52 -34.23744 151.21657 3500 ft 291 kts 36°
2026-05-07 21:52 -34.22125 151.23120 3060 ft 289 kts 36°
2026-05-07 21:53 -34.20448 151.24263 2949 ft 264 kts 11°
2026-05-07 21:53 -34.18711 151.24345 2956 ft 239 kts 340°
2026-05-07 21:53 -34.17193 151.23737 2965 ft 222 kts 333°
2026-05-07 21:53 -34.15749 151.23157 2975 ft 223 kts 337°
2026-05-07 21:54 -34.14231 151.22676 2974 ft 224 kts 340°
2026-05-07 21:54 -34.12693 151.22257 2979 ft 225 kts 341°
2026-05-07 21:54 -34.11166 151.21860 2966 ft 217 kts 341°
2026-05-07 21:54 -34.09704 151.21484 2693 ft 210 kts 341°
2026-05-07 21:55 -34.08311 151.21130 2428 ft 200 kts 341°
2026-05-07 21:55 -34.06992 151.20790 2175 ft 194 kts 340°
2026-05-07 21:55 -34.05665 151.20444 1921 ft 193 kts 340°
2026-05-07 21:55 -34.04378 151.20114 1657 ft 185 kts 340°
2026-05-07 21:56 -34.03149 151.19797 1419 ft 175 kts 340°
2026-05-07 21:56 -34.01988 151.19495 1178 ft 164 kts 340°
2026-05-07 21:56 -34.00901 151.19214 964 ft 153 kts 341°
2026-05-07 21:56 -33.99889 151.18953 755 ft 144 kts 342°
2026-05-07 21:57 -33.98940 151.18707 533 ft 134 kts 343°
2026-05-07 21:57 -33.98054 151.18488 337 ft 131 kts 344°
2026-05-07 21:57 -33.97169 151.18251 152 ft 128 kts 345°
2026-05-07 21:57 -33.96292 151.18019 40 ft 129 kts 346°
2026-05-07 21:58 -33.95515 151.17818 22 ft 96 kts 349°
2026-05-07 21:58 -33.94977 151.17679 26 ft 61 kts 347°
2026-05-07 21:58 -33.94717 151.17612 30 ft 30 kts 349°
2026-05-07 21:58 -33.94534 151.17543 29 ft 26 kts 332°
2026-05-07 21:59 -33.94410 151.17441 28 ft 16 kts 321°
2026-05-07 21:59 -33.94361 151.17392 28 ft 8 kts 319°
2026-05-07 21:59 -33.94349 151.17378 28 ft 1 kts 317°
2026-05-07 21:59 -33.94330 151.17358 28 ft 8 kts 317°
2026-05-07 22:00 -33.94280 151.17314 28 ft 13 kts 330°
2026-05-07 22:00 -33.94191 151.17279 27 ft 13 kts 345°
2026-05-07 22:00 -33.94148 151.17267 26 ft 3 kts 348°
2026-05-07 22:00 -33.94100 151.17252 27 ft 8 kts 333°
2026-05-07 22:01 -33.94079 151.17169 28 ft 13 kts 260°
2026-05-07 22:01 -33.94102 151.17058 30 ft 14 kts 258°
2026-05-07 22:01 -33.94127 151.16946 29 ft 13 kts 252°
2026-05-07 22:01 -33.94157 151.16829 29 ft 15 kts 253°
2026-05-07 22:02 -33.94189 151.16696 28 ft 17 kts 255°
2026-05-07 22:02 -33.94217 151.16573 27 ft 11 kts 252°
2026-05-07 22:02 -33.94243 151.16486 25 ft 10 kts 252°
2026-05-07 22:02 -33.94257 151.16400 23 ft 11 kts 266°
2026-05-07 22:03 -33.94237 151.16339 22 ft 8 kts 317°
2026-05-07 22:03 -33.94195 151.16310 22 ft 6 kts 339°
2026-05-07 22:03 -33.94143 151.16298 22 ft 8 kts 12°
2026-05-07 22:03 -33.94117 151.16321 23 ft 3 kts 46°
2026-05-07 22:04 -33.94110 151.16330 23 ft 0 kts 46°
2026-05-07 22:04 -33.94102 151.16339 23 ft 2 kts 44°
2026-05-07 22:04 -33.94095 151.16347 23 ft 0 kts 44°
2026-05-07 22:04 -33.94091 151.16351 24 ft 3 kts 43°
2026-05-07 22:05 -33.94070 151.16376 24 ft 1 kts 41°
2026-05-07 22:05 -33.94063 151.16382 25 ft 1 kts 42°
2026-05-07 22:05 -33.94063 151.16383 25 ft 0 kts 42°